Location: Lucerne Valley
(34.4439°N, 116.9669°E)
Time: 23:45:00
(UTC-08:00)

Vanguard 2 - All Passes

Search period start: 10 December 2017 00:00
Search period end: 20 December 2017 00:00
Orbit: 553 x 2939 km, 32.9° (Epoch: 10 December)

Date Brightness Start Highest point End Pass type
(mag) Time Alt. Az. Time Alt. Az. Time Alt. Az.
10 Dec - 00:06:38 10° SW 00:12:35 37° SSE 00:16:46 10° E daylight
10 Dec - 02:16:06 10° W 02:20:45 71° S 02:24:40 10° E visible
10 Dec - 04:24:53 10° W 04:28:43 50° SSW 04:33:03 10° ESE visible
10 Dec - 06:33:42 10° WSW 06:36:51 18° SSW 06:40:44 10° SSE night (unlit)
10 Dec - 22:15:38 10° SSW 22:21:54 22° SSE 22:26:26 10° ESE daylight
11 Dec - 00:24:30 10° WSW 00:30:40 49° SSE 00:34:57 10° E daylight
11 Dec - 02:34:17 10° W 02:38:50 73° S 02:42:46 10° E visible
11 Dec - 04:43:05 10° W 04:46:45 37° SSW 04:50:56 10° SE visible
11 Dec - 06:53:17 10° SW 06:54:58 12° SSW 06:56:50 10° S night (unlit)
11 Dec - 20:27:57 10° SSE 20:30:26 11° SSE 20:32:40 10° SE daylight
11 Dec - 22:32:43 10° SW 22:40:06 30° SSE 22:45:04 10° E daylight
12 Dec - 00:42:35 10° WSW 00:48:47 61° S 00:53:03 10° E daylight
12 Dec - 02:52:28 10° W 02:56:55 68° S 03:00:49 10° ESE visible
12 Dec - 05:01:25 10° W 05:04:46 26° SSW 05:08:35 10° SE night (unlit)
12 Dec - 20:42:19 10° S 20:48:45 17° SSE 20:53:41 10° ESE daylight
12 Dec - 22:50:16 10° SW 22:58:17 40° SSE 23:03:25 10° E daylight
13 Dec - 01:00:47 10° WSW 01:06:53 71° S 01:11:06 10° E daylight
13 Dec - 03:10:40 10° W 03:14:57 56° SSW 03:18:51 10° ESE visible
13 Dec - 05:20:03 10° WSW 05:22:46 18° SSW 05:25:48 10° SSE night (unlit)
13 Dec - 20:58:36 10° SSW 21:07:02 24° SSE 21:12:56 10° ESE daylight
13 Dec - 23:08:06 10° WSW 23:16:26 51° SSE 23:21:36 10° E daylight
14 Dec - 01:19:01 10° W 01:24:58 75° S 01:29:10 10° E visible
14 Dec - 03:28:53 10° W 03:32:59 43° SSW 03:36:45 10° SE visible
14 Dec - 05:39:45 10° SW 05:40:47 11° SSW 05:41:50 10° SSW night (unlit)
14 Dec - 19:10:21 10° S 19:14:58 12° SSE 19:18:58 10° SE daylight
14 Dec - 21:15:35 10° SW 21:25:18 33° SSE 21:31:36 10° E daylight
14 Dec - 23:26:11 10° WSW 23:34:34 62° SSE 23:39:43 10° E daylight
15 Dec - 01:37:18 10° W 01:43:05 74° S 01:47:13 10° E visible
15 Dec - 03:47:13 10° W 03:50:56 30° SSW 03:54:28 10° SE visible
15 Dec - 19:24:55 10° S 19:33:18 19° SSE 19:39:44 10° ESE daylight
15 Dec - 21:33:02 10° SW 21:43:30 42° SSE 21:50:00 10° E daylight
15 Dec - 23:44:24 10° WSW 23:52:42 71° S 23:57:46 10° E daylight
16 Dec - 01:55:34 10° W 02:01:09 66° S 02:05:13 10° ESE visible
16 Dec - 04:05:45 10° WSW 04:08:51 20° SSW 04:11:51 10° SSE visible
16 Dec - 19:41:02 10° SSW 19:51:36 26° SSE 19:59:04 10° E daylight
16 Dec - 21:50:48 10° SW 22:01:42 52° SSE 22:08:13 10° E daylight
17 Dec - 00:02:44 10° W 00:10:51 77° S 00:15:50 10° E daylight
17 Dec - 02:13:51 10° W 02:19:10 53° SSW 02:23:09 10° ESE visible
17 Dec - 04:24:53 10° WSW 04:26:43 13° SSW 04:28:31 10° S visible
17 Dec - 17:53:16 10° SSE 17:58:58 13° SE 18:03:59 10° ESE daylight
17 Dec - 19:57:52 10° SSW 20:09:51 34° SSE 20:17:50 10° E daylight
17 Dec - 22:08:51 10° WSW 22:19:52 62° SSE 22:26:21 10° E daylight
18 Dec - 00:21:05 10° W 00:28:58 78° S 00:33:52 10° E daylight
18 Dec - 02:32:10 10° W 02:37:08 40° SSW 02:40:57 10° SE visible
18 Dec - 18:07:31 10° S 18:17:16 19° SSE 18:25:03 10° ESE daylight
18 Dec - 20:15:11 10° SW 20:28:06 43° SSE 20:36:17 10° E daylight
18 Dec - 22:27:04 10° WSW 22:38:03 72° S 22:44:25 10° E daylight
19 Dec - 00:39:27 10° W 00:47:05 74° S 00:51:53 10° ESE daylight
19 Dec - 02:50:38 10° W 02:55:00 28° SSW 02:58:31 10° SSE visible
19 Dec - 18:23:23 10° SSW 18:35:32 27° SSE 18:44:36 10° E daylight
19 Dec - 20:32:51 10° SW 20:46:19 53° SSE 20:54:34 10° E daylight
19 Dec - 22:45:26 10° WSW 22:56:13 78° S 23:02:29 10° E daylight
